This demonstration page uses our WeatherBlox Daily Observations layout. Learn more.

41.55636, -103.73856

Hourly Observations for September 2, 2017

Temp ( °F °C ) Dew Point ( °F °C ) Humidity (%) Winds ( mph kmh ) Pressure ( in mb ) Visibility ( mi km ) Precip ( " mm )
12:53 am 00:53 Hazy 58 14.4 47 8.3 67 67 N 5 7 30.02 1017 6 9.65604 0 0
1:53 am 01:53 Hazy 56 13.3 48 8.9 75 75 NW 7 11 30.03 1017 6 9.65604 0 0
2:53 am 02:53 Hazy 55 12.8 47 8.3 74 74 NW 8 13 30.03 1017 5 8.0467 0 0
3:53 am 03:53 Hazy 55 12.8 45 7.2 69 69 NW 6 9 30.04 1017 5 8.0467 0 0
4:53 am 04:53 Mostly Cloudy with Haze 54 12.2 46 7.8 75 75 NW 8 13 30.05 1018 5 8.0467 0 0
5:53 am 05:53 Mostly Cloudy with Haze 54 12.2 44 6.7 69 69 NW 8 13 30.08 1019 5 8.0467 0 0
6:53 am 06:53 Hazy 53 11.7 45 7.2 74 74 NW 8 13 30.11 1020 3 4.82802 0 0
7:53 am 07:53 Hazy 57 13.9 44 6.7 62 62 NW 8 13 30.13 1020 4 6.43736 0 0
8:53 am 08:53 Hazy 63 17.2 45 7.2 52 52 NW 10 17 30.14 1021 4 6.43736 0 0
9:53 am 09:53 Hazy 70 21.1 47 8.3 44 44 WNW 8 13 30.13 1020 4 6.43736 0 0
10:53 am 10:53 Hazy 76 24.4 48 8.9 37 37 NNW 9 15 30.12 1020 5 8.0467 0 0
11:53 am 11:53 Hazy 80 26.7 49 9.4 34 34 VRB 3 6 30.1 1019 5 8.0467 0 0
12:53 pm 12:53 Hazy 85 29.4 47 8.3 27 27 VRB 5 7 30.07 1018 5 8.0467 0 0
1:53 pm 13:53 Hazy 87 30.6 41 5 20 20 S 7 11 30.06 1018 5 8.0467 0 0
2:53 pm 14:53 Hazy 89 31.7 42 5.6 19 19 VRB 5 7 30.03 1017 6 9.65604 0 0
3:53 pm 15:53 Hazy 90 32.2 42 5.6 19 19 Calm 30.01 1016 6 9.65604 0 0
4:53 pm 16:53 Hazy 89 31.7 47 8.3 23 23 E 8 13 30 1016 6 9.65604 0 0
5:53 pm 17:53 Hazy 86 30 54 12.2 33 33 E 8 13 30 1016 6 9.65604 0 0
6:53 pm 18:53 Hazy 79 26.1 55 12.8 44 44 E 7 11 30.01 1016 6 9.65604 0 0
7:53 pm 19:53 Clear 70 21.1 55 12.8 59 59 E 7 11 30.02 1017 7 11.26538 0 0
8:53 pm 20:53 Clear 69 20.6 52 11.1 55 55 E 9 15 30.03 1017 7 11.26538 0 0
9:53 pm 21:53 Clear 67 19.4 52 11.1 59 59 ESE 8 13 30.02 1017 7 11.26538 0 0
10:53 pm 22:53 Clear 63 17.2 51 10.6 65 65 ESE 8 13 30.02 1017 7 11.26538 0 0
11:53 pm 23:53 Clear 62 16.7 51 10.6 67 67 ESE 7 11 30.01 1016 7 11.26538 0 0

Powered by AerisWeather